Sheringham Point, British Columbia

1:34 AM PDT on May 27, 2017 (GMT -0700)
Sheringham Point

Weather History for CWSP - August, 2014

Change the Weather History Date:

Tuesday, August 19, 2014

  Actual Average Record
Temperature  
Mean Temperature 58 °F -  
Max Temperature 64 °F - - ()
Min Temperature 52 °F - - ()
Degree Days  
Heating Degree Days 7    
Growing Degree Days 8 (Base 50)    
Moisture  
Dew Point 54 °F    
Average Humidity 94    
Maximum Humidity 100    
Minimum Humidity 84    
Precipitation  
Precipitation 0.00 in - - ()
Sea Level Pressure  
Sea Level Pressure 29.83 in    
Wind  
Wind Speed 11 mph ()    
Max Wind Speed 26 mph    
Max Gust Speed 28 mph    
T = Trace of Precipitation, MM = Missing Value Source: Averaged Metar Reports

Daily Weather History Graph

Daily Weather History Graph

Search for Another Location

Airport or City:

Trip Planner

Search our weather history database for the weather conditions in past years. The results will help you decide how hot, cold, wet, or windy it might be!

Date:

Astronomy

Aug. 19, 2014 Rise Set
Actual Time 6:15 AM PDT 8:22 PM PDT
Civil Twilight 5:41 AM PDT 8:56 PM PDT
Nautical Twilight 4:59 AM PDT 9:38 PM PDT
Astronomical Twilight 4:11 AM PDT 10:25 PM PDT
Moon 1:03 AM PDT (8/19) 4:32 PM PDT (8/19)
Length of Visible Light 15h 14m
Length of Day
14h 06m
Waning Crescent, 28% of the Moon is Illuminated
Aug 19
Waning Crescent
Aug 25
New
Sep 2
First Quarter
Sep 8
Full
Sep 15
Last Quarter

Hourly Weather History & Observations

Time (PDT) Temp. Dew Point Humidity Pressure Visibility Wind Dir Wind Speed Gust Speed Precip Events Conditions
12:00 AM 58.6 °F 56.7 °F 93% 29.84 in - WNW 4.6 mph - N/A   Unknown
1:00 AM 55.8 °F 54.3 °F 95% 29.83 in - NNE 1.2 mph - N/A   Unknown
2:00 AM 54.9 °F 52.7 °F 92% 29.82 in - WNW 11.5 mph - N/A   Unknown
3:00 AM 54.7 °F 53.8 °F 97% 29.82 in - WNW 9.2 mph - N/A   Unknown
4:00 AM 54.1 °F 53.6 °F 98% 29.82 in - Calm Calm - N/A   Unknown
5:00 AM 53 °F 53 °F 100% 29.83 in - WNW 1.2 mph - -  
5:00 AM 53.4 °F 53.2 °F 99% 29.83 in - WNW 1.2 mph - N/A   Unknown
6:00 AM 53.2 °F 53.2 °F 100% 29.82 in - WNW 2.3 mph - N/A   Unknown
7:00 AM 53.4 °F 53.4 °F 100% 29.83 in - East 1.2 mph - N/A   Unknown
8:00 AM 55.2 °F 55.0 °F 99% 29.83 in - WNW 12.7 mph - N/A   Unknown
9:00 AM 55.8 °F 55.8 °F 100% 29.83 in - WNW 17.3 mph - N/A   Unknown
10:00 AM 55.4 °F 55.4 °F 100% 29.84 in - WNW 19.6 mph - N/A   Unknown
11:00 AM 55 °F 55 °F 98% 29.84 in - WNW 19.6 mph - -  
11:00 AM 55.0 °F 54.7 °F 99% 29.84 in - WNW 19.6 mph - N/A   Unknown
12:00 PM 57.7 °F 55.2 °F 91% 29.83 in - WNW 23.0 mph - N/A   Unknown
1:00 PM 57.9 °F 55.4 °F 91% 29.83 in - WNW 24.2 mph - N/A   Unknown
2:00 PM 57.9 °F 56.7 °F 96% 29.84 in - WNW 26.5 mph - N/A   Unknown
5:00 PM 56 °F 54 °F 89% 29.83 in - WNW 24.2 mph - -  
5:00 PM 56.5 °F 53.6 °F 90% 29.83 in - WNW 24.2 mph - N/A   Unknown
6:00 PM 56.1 °F 53.4 °F 91% 29.82 in - WNW 24.2 mph - N/A   Unknown
7:00 PM 57.0 °F 54.0 °F 89% 29.82 in - WNW 24.2 mph - N/A   Unknown
8:00 PM 55.9 °F 51.8 °F 86% 29.82 in - WNW 24.2 mph - N/A   Unknown
9:00 PM 54.9 °F 53.2 °F 94% 29.83 in - WNW 24.2 mph - N/A   Unknown
10:00 PM 57.2 °F 53.2 °F 87% 29.83 in - WNW 24.2 mph - N/A   Unknown
11:00 PM 57 °F 54 °F 84% 29.83 in - WNW 20.7 mph - -  
11:00 PM 56.8 °F 53.6 °F 89% 29.83 in - WNW 20.7 mph 27.6 mph N/A   Unknown